Showing default

LEMUR-2-TARTIFLETTE, 66784

Orbit data source: Space-Track

LEMUR-2-TARTIFLETTE, 66784 is a payload satellite owned by Spire (US) in SSO that was launched on Fri, 28 Nov 2025 UTC via an FALCON 9 launch vehicle from the Air Force Western Test Range (AFWTR). Payload-class satellites include a variety of spacecraft equipped with specific instruments for various scientific and technological missions. These include communications satellites like Starlink; space stations such as the ISS; scientific satellites like the Hubble; Earth observation satellites from companies like Planet Labs, Umbra, and HawkEye 360; GPS; miniature CubeSats for education and research; and military/defense satellites.

Loading next visibility...
Identifier
66784, 2025-276DZ
Orbit
SSO
Country
Flag of USUS
Related business
Manufacturer
Spire/Glasgow
Mission
Operational spacecraft
Bus & Motor
CUBESAT 3U, Unknown motor
Mass
7.6 kg wet, 7.6 kg dry
Launch date (UTC)
2025-11-28 (4 months ago)
Launch vehicle
FALCON 9
Launch site
Air Force Western Test Range (AFWTR)
Object type
Payload
Rocket body
Debris
Shape & HBR
Unknown
Radar Cross Section
RCS unknown

Expand to show TLE details & history
Last TLE update: 9 hours ago

TLE from 9 hours ago
0 LEMUR-2-TARTIFLETTE
1 66784U 25276DZ  26095.45475054  .00008131  00000-0  68872-3 0  9996
2 66784  97.5285 168.6169 0013543  27.7118 332.4824 14.98172019 19309
Epoch: 2026-04-05T10:54Z
TLE epoch observation values (Epoch: 2026-04-05T10:54:50.446Z)
Latitude
-0.00002°
Longitude
171.14678°
Altitude
567.254 km
Speed
7.582 km/s
True Right ascension
11h 14m 28s
True Declination
0° 00' 00"
Sunlit
Object was in full shadow at epoch
Visualization orbit readout
Latitude
Unknown
Longitude
Unknown
Altitude
Unknown
Speed
Unknown
Apparent Right ascension
Unknown
Apparent Declination
Unknown
Sunlit
N/A
Visualization observer readout
Local Sidereal Time
01:43:12
Azimuth
Unknown
Elevation
Unknown
Doppler factor
Unknown
Orbital elements
Apogee altitude
578.954 km
Perigee altitude
560.135 km
Semi-major axis
6,947.682 km
Eccentricity
0.00135
Inclination
97.5285°
RAAN
168.6169°
Arg. of periapsis
27.7118°
True anomaly
332.41059°
Mean anomaly
332.4824°
Eccentric anomaly
332.44651°
Mean motion
3.74786 °/min
Orbital period
96.05 mins
BSTAR
0.00068872
Loading maneuver chart data...
Computing Atmospheric mass density...
Loading historical data...
Loading historical data...
Loading historical data...
Loading historical data...
Loading historical data...
Loading historical data...
Loading historical data...

Documentation

Showing up to 5 results
|